x

La Perouse Bank (46206) Wave Buoy

1:00am - Tue 28th Jun 2016 All times are PDT. -7 hours from GMT.

  • Sig Wave height 6.6ft
  • Peak Period 7s
  • Wind
    4mph, 13mph gusts
  • Sea Temp 58°f
  • 空気 Temp 58°f
  • Sea Pressure 1022.7mb
  • La Perouse Bank
  • La Perouse Bank

More Historic Weather Station data

Upgrade to MSW Pro to gain access to the past 30 days of data for over 8000 Wavebouys and Weather Stations around the globe.

Join Pro

Comparision Forecast

View Surf forecast
   
Tue 06/28 1:00am 6.5ft 7s 4 13 mph 1022.7mb 58f 58f
12:00am 6.5ft 8s 7 13 mph 1022.7mb 58f 58f
Mon 06/27 11:00pm 7ft 7s 9 18 mph 1022.9mb 59f 59f
10:00pm 7ft 7s 11 18 mph 1022.8mb 58f 59f
9:00pm 7ft 7s 11 20 mph 1022.4mb 58f 59f
8:00pm 6ft 6s 4 13 mph 1022.3mb 59f 59f
7:00pm 6ft 8s 18 25 mph 1021.9mb 58f 59f
6:00pm 6ft 7s 9 20 mph 1022mb 59f 60f
5:00pm 6ft 8s 18 22 mph 1022.2mb 58f 60f
4:00pm 7ft 7s 2 9 mph 1022.5mb 59f 60f
3:00pm 6ft 7s 4 20 mph 1022.7mb 58f 59f
2:00pm 6.5ft 8s 2 11 mph 1022.6mb 59f 59f
1:00pm 6ft 10s 2 7 mph 1022.7mb 58f 59f
12:00pm 6ft 10s 11 16 mph 1022.5mb 59f 60f
11:00am 6ft 10s  -  4 mph 1022.2mb 58f 60f
10:00am 5.5ft 18s 4 9 mph 1022mb 58f 60f
9:00am 6ft 18s  -  2 mph 1021.7mb 58f 60f
8:00am 5ft 8s  -  2 mph 1021.6mb 58f 60f
7:00am 6ft 7s 2 7 mph 1021.1mb 58f 60f
6:00am 6ft 6s 2 7 mph 1020.9mb 58f 59f
5:00am 6ft 7s 2 9 mph 1020.6mb 58f 59f
4:00am 6ft 7s 2 4 mph 1020.6mb 58f 59f
3:00am 5.5ft 10s 4 9 mph 1020.5mb 58f 59f
2:00am 5ft 17s 7 16 mph 1020.6mb 58f 59f
1:00am 5ft 6s 13 20 mph 1020.6mb 58f 59f
12:00am 5ft 18s 13 20 mph 1020.6mb 58f 60f
Sun 06/26 11:00pm 5ft 17s 13 20 mph 1020.7mb 59f 60f
10:00pm 5ft 17s 18 22 mph 1021mb 58f 60f
9:00pm 5ft 16s 16 22 mph 1021mb 58f 60f
8:00pm 4.5ft 16s 13 20 mph 1021.5mb 58f 60f
7:00pm 5ft 16s 4 16 mph 1022mb 58f 60f
6:00pm 5ft 17s 2 13 mph 1022.2mb 58f 60f
5:00pm 4.5ft 17s 4 20 mph 1022.7mb 59f 60f
4:00pm 4.5ft 17s 2 13 mph 1023.2mb 58f 60f
3:00pm 4ft 17s 2 9 mph 1023.8mb 58f 60f
2:00pm 4ft 16s 2 9 mph 1024.4mb 58f 60f
1:00pm 4ft 17s 4 11 mph 1024.4mb 58f 60f
12:00pm 4ft 17s 2 9 mph 1024.5mb 58f 58f
11:00am 3.5ft 17s 2 9 mph 1024.5mb 58f 56f
10:00am 4ft 17s  -  7 mph 1024.6mb 58f 56f
9:00am 3.5ft 17s 2 7 mph 1024.6mb 58f 56f
8:00am 4.5ft 17s 4 13 mph 1024.6mb 58f 57f
7:00am 4.5ft 18s  -  4 mph 1024.5mb 58f 56f
6:00am 5ft 18s  -  4 mph 1024.1mb 58f 56f
5:00am 5ft 18s 2 7 mph 1023.8mb 58f 57f
4:00am 5ft 5s 7 20 mph 1023.9mb 58f 57f
3:00am 5ft 16s 11 18 mph 1024.1mb 58f 58f
2:00am 5ft 18s 13 22 mph 1024.4mb 59f 58f
1:00am 4.5ft 17s 16 25 mph 1024.5mb 58f 59f
12:00am 4ft 16s 9 18 mph 1024.7mb 59f 60f
Sat 06/25 11:00pm 4.5ft 18s 7 13 mph 1024.9mb 59f 60f
10:00pm 4ft 16s 4 13 mph 1024.9mb 59f 58f
9:00pm 4ft 18s 7 13 mph 1024.9mb 59f 58f
8:00pm 4ft 17s 4 13 mph 1024.7mb 59f 59f
7:00pm 3.5ft 18s  -  9 mph 1025.2mb 59f 60f
6:00pm 3.5ft 18s  -  4 mph 1025.5mb 59f 60f
5:00pm 3.5ft 16s  -  4 mph 1026.1mb 59f 60f
4:00pm 3.5ft 17s  -  mph 1026.4mb 59f 60f
3:00pm 3.5ft 16s  -  2 mph 1026.6mb 59f 59f
2:00pm 3.5ft 17s  -  mph 1026.9mb 59f 59f
1:00pm 3.5ft 17s  -  2 mph 1026.9mb 59f 59f
12:00pm 4ft 17s  -  2 mph 1026.8mb 58f 59f
11:00am 4ft 16s  -  2 mph 1026.8mb 58f 59f
10:00am 4ft 17s  -  2 mph 1026.6mb 58f 59f
9:00am 4ft 16s  -  2 mph 1026.5mb 58f 59f
8:00am 4ft 7s  -  2 mph 1026.4mb 58f 58f
7:00am 4ft 8s  -  2 mph 1026.2mb 57f 58f
6:00am 3.5ft 16s  -  2 mph 1025.9mb 57f 58f
5:00am 3.5ft 16s  -  2 mph 1025.8mb 57f 58f
4:00am 4ft 16s  -  2 mph 1025.7mb 57f 58f
3:00am 4ft 16s  -  mph 1025.9mb 57f 58f
2:00am 4.5ft 7s  -  2 mph 1025.8mb 57f 58f
1:00am 4ft 17s  -  4 mph 1026.1mb 57f 58f
12:00am 4.5ft 8s  -  4 mph 1026.2mb 58f 58f
Fri 06/24 11:00pm 4.5ft 8s  -  2 mph 1026.2mb 58f 58f
10:00pm 4.5ft 17s  -  7 mph 1026.1mb 58f 58f
9:00pm 4.5ft 8s 2 7 mph 1025.7mb 58f 58f
8:00pm 4.5ft 17s  -  4 mph 1025.6mb 58f 58f
7:00pm 4.5ft 18s 2 7 mph 1025.2mb 58f 58f
6:00pm 4.5ft 7s 4 11 mph 1025.1mb 59f 58f
5:00pm 4.5ft 17s 4 11 mph 1024.8mb 59f 59f
4:00pm 4.5ft 17s 4 11 mph 1024.7mb 58f 59f
3:00pm 4.5ft 8s 2 11 mph 1024.9mb 57f 59f
2:00pm 4.5ft 8s 7 13 mph 1024.4mb 57f 58f
1:00pm 4.5ft 8s 2 9 mph 1023.8mb 57f 59f
12:00pm 4.5ft 7s 2 9 mph 1023.1mb 57f 59f
11:00am 4.5ft 17s  -  4 mph 1022.7mb 57f 58f
10:00am 4.5ft 18s 2 9 mph 1022.2mb 57f 58f